OneWeb SL0115

operational
NORAD ID: 48042 Int'l Des: 2021-025 Owner: ONEWEBN Country: UK Constellation: oneweb
LEOCIRCULARPOLARONEWEB_TYPE

Über OneWeb SL0115

Beschreibung wird geladen...

Live-Position

3D-Globus wird geladen...

Nächste Überflüge

Höhenverlauf

Altitude vs Time

uPlot chart will show altitude changes over time

Zweizeiliger Elementsatz

1 48042U 21025A 25311.11802471 -.00000031 00000-0 -11929-3 0 9995
2 48042 87.9031 4.3511 0001807 99.2224 260.9109 13.13469563224440
Epoch: 7. Nov. 2025 • Age: 8 hours

Aktueller Status

Höhe 1218.0 km
Geschwindigkeit 7.24 km/s
Subsatellitenpunkt -20.93°S, 29.29°W
Startdatum 25. März 2021
Alter 4.6 years
Typ internet

Technische Details

Klassifizierung Payload
Masse 148.00 kg
Trockenmasse 140.00 kg
Gesamtmasse 148.00 kg
Länge 1.30 m
Durchmesser 1.00 m
Spannweite 5.00 m
Form Trapezoid+2 pan
Hersteller ONEWUS
Bus-Typ ARROW
Phasenstatus In Orbit
Besitzer/Staat ONEWEBN/UK

Große Konstellationen

Loading constellations...